SL-16 DEB, 22614

Orbit data source: Space-Track

SL-16 DEB, 22614 is space debris in LEO originally from a launch on Fri, 26 Mar 1993 UTC launched from the Tyuratam Missile And Space Complex (TTMTR). Debris objects in space refer to the collection of defunct objects orbiting the Earth. Examples of debris include non-operational satellites, rocket bodies, and fragments generated from explosions, collisions, or faulty payload assembly.

Loading next visibility...
Identifier
22614, 1993-016Y
Orbit
LEO
Country
Flag of CISCIS
Related business
Manufacturer
Unknown
Mission
Spacecraft
Bus & Motor
Unknown
Mass
Unknown
Launch date (UTC)
1993-03-26 (33 years ago)
Launch vehicle
Unknown
Launch site
Tyuratam Missile And Space Complex (TTMTR)
Object type
Payload
Rocket body
Debris
Shape & HBR
Unknown shape, 0.1 m
Radar Cross Section
Small (<0.1 m²)

Expand to show TLE details & history
Last TLE update: 19 hours ago

TLE from 19 hours ago
0 SL-16 DEB
1 22614U 93016Y   25341.10319737  .00000598  00000-0  49338-3 0  9992
2 22614  70.9972 131.3518 0125034  74.3755  43.8978 13.89466374653676
Epoch: 2025-12-07T02:28Z
TLE epoch observation values (Epoch: 2025-12-07T02:28:36.252Z)
Latitude
55.67163°
Longitude
167.97019°
Altitude
873.91 km
Speed
7.454 km/s
True Right ascension
18h 44m 58s
True Declination
55° 30' 50"
Sunlit
Object was in daylight at epoch
Visualization orbit readout
Latitude
Unknown
Longitude
Unknown
Altitude
Unknown
Speed
Unknown
Apparent Right ascension
Unknown
Apparent Declination
Unknown
Sunlit
N/A
Visualization observer readout
Local Sidereal Time
19:10:28
Azimuth
Unknown
Elevation
Unknown
Doppler factor
Unknown
Orbital elements
Apogee altitude
1,019.808 km
Perigee altitude
837.094 km
Semi-major axis
7,306.588 km
Eccentricity
0.0125
Inclination
70.9972°
RAAN
131.3518°
Arg. of periapsis
74.3755°
True anomaly
44.90251°
Mean anomaly
43.8978°
Eccentric anomaly
44.39902°
Mean motion
3.47513 °/min
Orbital period
103.59 mins
BSTAR
0.00049338
Loading maneuver chart data...
Computing Atmospheric mass density...
Loading historical data...
Loading historical data...
Loading historical data...
Loading historical data...
Loading historical data...
Loading historical data...
Loading historical data...

Documentation

Showing up to 5 results
|